This demonstration page uses our WeatherBlox Daily Observations layout. Learn more.

Left ArrowRight Arrow

Hourly Observations for June 26, 2020

Temp ( °F °C ) Dew Point ( °F °C ) Humidity (%) Winds ( mph kmh ) Pressure ( in mb ) Visibility ( mi km ) Precip ( " mm )
12:53 am 00:53 Clear 78 25.6 58 14.4 50 50 SSE 8 13 29.83 1010 10 16 0.00 0.00
1:53 am 01:53 Clear 77 25 57 13.9 50 50 SSE 8 13 29.83 1010 10 16 0.00 0.00
2:53 am 02:53 Clear 76 24.4 57 13.9 52 52 SE 7 11 29.83 1010 10 16 0.00 0.00
3:53 am 03:53 Clear 75 23.9 58 14.4 55 55 SE 10 17 29.83 1010 10 16 0.00 0.00
4:53 am 04:53 Clear 73 22.8 58 14.4 59 59 SSE 8 13 29.83 1010 10 16 0.00 0.00
5:53 am 05:53 Clear 72 22.2 60 15.6 66 66 SE 9 15 29.85 1011 10 16 0.00 0.00
6:53 am 06:53 Sunny 71 21.7 62 16.7 73 73 SE 10 17 29.86 1011 10 16 0.00 0.00
7:53 am 07:53 Sunny 73 22.8 64 17.8 74 74 SE 12 19 29.87 1012 10 16 0.00 0.00
8:53 am 08:53 Sunny 78 25.6 65 18.3 64 64 SSE 14 22 29.88 1012 10 16 0.00 0.00
9:53 am 09:53 Sunny 82 27.8 64 17.8 55 55 SSE 16 26 29.88 1012 10 16 0.00 0.00
10:53 am 10:53 Sunny 85 29.4 64 17.8 50 50 SSE 14 22 29.86 1011 10 16 0.00 0.00
11:53 am 11:53 Sunny 88 31.1 62 16.7 42 42 SSE 10 17 29.86 1011 10 16 0.00 0.00
12:53 pm 12:53 Sunny 91 32.8 60 15.6 35 35 SE 10 17 29.85 1011 10 16 0.00 0.00
1:53 pm 13:53 Sunny 94 34.4 56 13.3 28 28 S 13 20 29.83 1010 10 16 0.00 0.00
2:53 pm 14:53 Sunny 96 35.6 56 13.3 26 26 SSE 15 24 29.81 1009 10 16 0.00 0.00
3:53 pm 15:53 Sunny 97 36.1 53 11.7 23 23 SE 15 24 29.79 1009 10 16 0.00 0.00
4:53 pm 16:53 Sunny 97 36.1 50 10 20 20 SE 16 26 29.76 1008 10 16 0.00 0.00
5:53 pm 17:53 Sunny 97 36.1 53 11.7 23 23 SE 17 28 29.75 1008 10 16 0.00 0.00
6:53 pm 18:53 Sunny 95 35 52 11.1 23 23 SE 14 22 29.77 1008 10 16 0.00 0.00
7:53 pm 19:53 Sunny 92 33.3 53 11.7 27 27 SE 14 22 29.76 1008 10 16 0.00 0.00
8:53 pm 20:53 Sunny 89 31.7 54 12.2 30 30 SE 9 15 29.78 1009 10 16 0.00 0.00
9:53 pm 21:53 Clear 86 30 57 13.9 37 37 SE 9 15 29.81 1009 10 16 0.00 0.00
10:53 pm 22:53 Clear 84 28.9 58 14.4 41 41 SSE 10 17 29.83 1010 10 16 0.00 0.00
11:53 pm 23:53 Clear 83 28.3 58 14.4 43 43 SSE 13 20 29.85 1011 10 16 0.00 0.00

Powered by AerisWeather